CFG5ER EVRA-EYVI

Flight info

Callsign CFG5ER
Flight time 0h 42m
Altitude 22000
Route ERIVA2H ERIVA DCT PIFBO PIFBO2A
Aircraft A320/M-SDE3FGHIRWY/LB1

Departure

Time 2026-05-01 13:07
Airport Riga International Airport (EVRA)

Arrival

Time 2026-05-01 13:49
Airport Vilnius International Airport (EYVI)
Time Latitude Longitude Altitude Speed Heading
2026-05-01 12:19 56.92295 23.97749 37 ft 0 kts 189°
2026-05-01 12:52 56.92309 23.97753 35 ft 2 kts 189°
2026-05-01 12:52 56.92333 23.97779 33 ft 0 kts 277°
2026-05-01 12:52 56.92334 23.97778 33 ft 0 kts 277°
2026-05-01 12:55 56.92334 23.97775 36 ft 0 kts 277°
2026-05-01 12:55 56.92335 23.97751 36 ft 3 kts 277°
2026-05-01 12:56 56.92339 23.97697 36 ft 6 kts 277°
2026-05-01 12:56 56.92349 23.97577 36 ft 12 kts 278°
2026-05-01 12:56 56.92307 23.97490 20 ft 9 kts 185°
2026-05-01 12:56 56.92241 23.97480 37 ft 10 kts 185°
2026-05-01 12:57 56.92132 23.97463 37 ft 17 kts 186°
2026-05-01 12:57 56.91903 23.97428 35 ft 15 kts 175°
2026-05-01 12:57 56.91799 23.97417 37 ft 18 kts 184°
2026-05-01 12:58 56.91653 23.97397 37 ft 23 kts 184°
2026-05-01 12:58 56.91489 23.97365 38 ft 24 kts 185°
2026-05-01 12:58 56.91318 23.97338 38 ft 25 kts 185°
2026-05-01 12:59 56.90973 23.97239 38 ft 25 kts 217°
2026-05-01 12:59 56.90809 23.97156 39 ft 25 kts 186°
2026-05-01 12:59 56.90654 23.97053 39 ft 10 kts 245°
2026-05-01 13:00 56.90695 23.96840 38 ft 0 kts
2026-05-01 13:01 56.90763 23.96849 37 ft 25 kts
2026-05-01 13:01 56.92046 23.97060 36 ft 149 kts
2026-05-01 13:02 56.93041 23.97219 281 ft 164 kts
2026-05-01 13:07 56.87930 24.24269 11876 ft 377 kts 155°
2026-05-01 13:07 56.85508 24.26144 12523 ft 382 kts 155°
2026-05-01 13:07 56.83036 24.28052 13172 ft 386 kts 155°
2026-05-01 13:08 56.80536 24.29977 13835 ft 390 kts 155°
2026-05-01 13:08 56.78040 24.31896 14425 ft 394 kts 155°
2026-05-01 13:08 56.75493 24.33847 14980 ft 398 kts 155°
2026-05-01 13:08 56.72921 24.35809 15526 ft 402 kts 155°
2026-05-01 13:09 56.70355 24.37758 16060 ft 406 kts 155°
2026-05-01 13:09 56.67730 24.39751 16603 ft 410 kts 155°
2026-05-01 13:09 56.65076 24.41766 17139 ft 415 kts 154°
2026-05-01 13:09 56.62425 24.43778 17671 ft 419 kts 154°
2026-05-01 13:10 56.59710 24.45840 18198 ft 423 kts 154°
2026-05-01 13:10 56.57007 24.47890 18734 ft 426 kts 154°
2026-05-01 13:10 56.54259 24.49975 19220 ft 429 kts 154°
2026-05-01 13:10 56.51474 24.52085 19709 ft 433 kts 154°
2026-05-01 13:11 56.48679 24.54195 20190 ft 436 kts 154°
2026-05-01 13:11 56.45892 24.56289 20669 ft 439 kts 154°
2026-05-01 13:11 56.43048 24.58418 21154 ft 442 kts 154°
2026-05-01 13:11 56.40193 24.60448 21607 ft 447 kts 159°
2026-05-01 13:12 56.37143 24.61781 22056 ft 454 kts 169°
2026-05-01 13:12 56.33968 24.62203 22245 ft 458 kts 180°
2026-05-01 13:12 56.30781 24.61670 22270 ft 458 kts 187°
2026-05-01 13:12 56.27647 24.60916 22264 ft 458 kts 187°
2026-05-01 13:13 56.24475 24.60174 22265 ft 458 kts 187°
2026-05-01 13:13 56.21302 24.59451 22270 ft 458 kts 187°
2026-05-01 13:13 56.18165 24.58748 22271 ft 458 kts 187°
2026-05-01 13:13 56.14993 24.58044 22270 ft 458 kts 187°
2026-05-01 13:14 56.11828 24.57343 22274 ft 458 kts 187°
2026-05-01 13:14 56.08649 24.56636 22271 ft 458 kts 187°
2026-05-01 13:14 56.05519 24.55937 22270 ft 458 kts 187°
2026-05-01 13:14 56.02350 24.55222 22303 ft 458 kts 187°
2026-05-01 13:15 55.99176 24.54501 22290 ft 459 kts 186°
2026-05-01 13:15 55.96001 24.54123 22291 ft 457 kts 174°
2026-05-01 13:15 55.92863 24.54876 22286 ft 454 kts 168°
2026-05-01 13:15 55.90227 24.55664 22282 ft 454 kts 168°
2026-05-01 13:16 55.87224 24.56576 22267 ft 455 kts 167°
2026-05-01 13:16 55.84098 24.57534 22266 ft 455 kts 167°
2026-05-01 13:16 55.81046 24.58473 22266 ft 455 kts 167°
2026-05-01 13:17 55.71746 24.61311 21756 ft 437 kts 167°
2026-05-01 13:17 55.68809 24.62197 21498 ft 430 kts 167°
2026-05-01 13:18 55.62930 24.63971 20989 ft 424 kts 167°
2026-05-01 13:18 55.60922 24.64576 20823 ft 423 kts 167°
2026-05-01 13:18 55.57948 24.65471 20560 ft 421 kts 167°
2026-05-01 13:18 55.55090 24.66333 20310 ft 419 kts 167°
2026-05-01 13:19 55.52206 24.67199 20063 ft 418 kts 167°
2026-05-01 13:19 55.49335 24.68056 19847 ft 416 kts 167°
2026-05-01 13:19 55.43661 24.69747 19359 ft 413 kts 167°
2026-05-01 13:20 55.40830 24.70588 19122 ft 411 kts 167°
2026-05-01 13:20 55.37999 24.71434 18880 ft 410 kts 167°
2026-05-01 13:20 55.35215 24.72266 18647 ft 408 kts 167°
2026-05-01 13:21 55.29701 24.73909 18129 ft 405 kts 167°
2026-05-01 13:21 55.26965 24.74718 17860 ft 403 kts 167°
2026-05-01 13:21 55.24185 24.75535 17594 ft 401 kts 167°
2026-05-01 13:21 55.21458 24.76335 17330 ft 399 kts 167°
2026-05-01 13:22 55.18722 24.77135 17068 ft 397 kts 167°
2026-05-01 13:22 55.15989 24.77934 16807 ft 395 kts 167°
2026-05-01 13:22 55.13315 24.78718 16552 ft 393 kts 167°
2026-05-01 13:22 55.10629 24.79507 16166 ft 390 kts 167°
2026-05-01 13:23 55.07961 24.80291 15684 ft 389 kts 167°
2026-05-01 13:23 55.05321 24.81064 15213 ft 389 kts 167°
2026-05-01 13:23 55.02631 24.81852 14733 ft 390 kts 167°
2026-05-01 13:23 54.99942 24.82641 14234 ft 390 kts 167°
2026-05-01 13:24 54.97294 24.83418 13716 ft 390 kts 167°
2026-05-01 13:24 54.94620 24.84200 13219 ft 388 kts 167°
2026-05-01 13:24 54.91952 24.84974 12716 ft 386 kts 168°
2026-05-01 13:25 54.86691 24.86495 11707 ft 382 kts 168°
2026-05-01 13:25 54.84122 24.87237 11250 ft 378 kts 168°
2026-05-01 13:25 54.81522 24.87986 10822 ft 374 kts 168°
2026-05-01 13:25 54.78988 24.88714 10672 ft 361 kts 168°
2026-05-01 13:26 54.76569 24.89408 10538 ft 349 kts 168°
2026-05-01 13:26 54.74215 24.90082 10422 ft 337 kts 168°
2026-05-01 13:26 54.71927 24.90738 10293 ft 326 kts 168°
2026-05-01 13:26 54.69728 24.91372 10013 ft 321 kts 168°
2026-05-01 13:27 54.67527 24.92009 9649 ft 318 kts 168°
2026-05-01 13:27 54.65340 24.92641 9279 ft 315 kts 168°
2026-05-01 13:27 54.61137 24.93849 8859 ft 298 kts 167°
2026-05-01 13:28 54.57565 24.96632 8360 ft 275 kts 135°
2026-05-01 13:28 54.56194 24.98909 8010 ft 271 kts 131°
2026-05-01 13:29 54.53601 25.03298 7139 ft 273 kts 133°
2026-05-01 13:29 54.50848 25.07929 6393 ft 268 kts 133°
2026-05-01 13:30 54.50748 25.19214 4312 ft 261 kts 42°
2026-05-01 13:31 54.53988 25.22035 3620 ft 247 kts 21°
2026-05-01 13:31 54.58175 25.24986 4055 ft 224 kts 20°
2026-05-01 13:32 54.60927 25.26862 4088 ft 221 kts 20°
2026-05-01 13:33 54.65318 25.29893 4081 ft 229 kts 20°
2026-05-01 13:33 54.68260 25.31981 4091 ft 230 kts 28°
2026-05-01 13:34 54.70113 25.36382 4092 ft 236 kts 69°
2026-05-01 13:34 54.71195 25.41697 4084 ft 236 kts 68°
2026-05-01 13:35 54.72279 25.47058 4081 ft 236 kts 69°
2026-05-01 13:35 54.72818 25.49734 4084 ft 236 kts 70°
2026-05-01 13:35 54.72333 25.55127 4075 ft 242 kts 132°
2026-05-01 13:36 54.70955 25.56749 4070 ft 241 kts 164°
2026-05-01 13:36 54.69327 25.57194 4073 ft 241 kts 177°
2026-05-01 13:36 54.65967 25.57442 4074 ft 241 kts 180°
2026-05-01 13:37 54.64282 25.57398 4077 ft 243 kts 181°
2026-05-01 13:37 54.63155 25.57421 4073 ft 244 kts 180°
2026-05-01 13:37 54.60950 25.57465 4071 ft 228 kts 182°
2026-05-01 13:37 54.59441 25.57125 4028 ft 215 kts 202°
2026-05-01 13:38 54.56800 25.54883 3643 ft 209 kts 210°
2026-05-01 13:38 54.55515 25.53714 3354 ft 208 kts 210°
2026-05-01 13:38 54.54227 25.52574 3093 ft 204 kts 209°
2026-05-01 13:39 54.52999 25.51502 2990 ft 194 kts 209°
2026-05-01 13:39 54.51830 25.50504 2876 ft 183 kts 208°
2026-05-01 13:39 54.50741 25.49464 2744 ft 173 kts 219°
2026-05-01 13:39 54.49819 25.48208 2728 ft 165 kts 222°
2026-05-01 13:40 54.48952 25.46899 2731 ft 165 kts 223°
2026-05-01 13:40 54.48105 25.45605 2716 ft 165 kts 224°
2026-05-01 13:40 54.47240 25.44300 2717 ft 165 kts 224°
2026-05-01 13:40 54.46664 25.43441 2732 ft 165 kts 223°
2026-05-01 13:41 54.45854 25.42068 2711 ft 162 kts 239°
2026-05-01 13:41 54.45278 25.39747 2728 ft 159 kts 256°
2026-05-01 13:41 54.44986 25.37911 2722 ft 159 kts 258°
2026-05-01 13:41 54.44867 25.36673 2727 ft 158 kts 268°
2026-05-01 13:42 54.44916 25.34783 2727 ft 157 kts 280°
2026-05-01 13:42 54.45160 25.32951 2723 ft 157 kts 289°
2026-05-01 13:42 54.45500 25.31178 2706 ft 155 kts 290°
2026-05-01 13:42 54.45855 25.29440 2724 ft 155 kts 291°
2026-05-01 13:43 54.46212 25.27688 2715 ft 155 kts 291°
2026-05-01 13:43 54.46571 25.25936 2716 ft 155 kts 290°
2026-05-01 13:43 54.46925 25.24205 2724 ft 155 kts 290°
2026-05-01 13:43 54.47285 25.22452 2716 ft 155 kts 291°
2026-05-01 13:44 54.47645 25.20695 2714 ft 155 kts 290°
2026-05-01 13:44 54.48001 25.18954 2734 ft 155 kts 290°
2026-05-01 13:44 54.48365 25.17189 2720 ft 156 kts 291°
2026-05-01 13:44 54.48731 25.15428 2714 ft 155 kts 294°
2026-05-01 13:45 54.49530 25.14392 2805 ft 155 kts 357°
2026-05-01 13:45 54.50513 25.15151 2744 ft 161 kts 33°
2026-05-01 13:45 54.51528 25.15869 2417 ft 156 kts
2026-05-01 13:45 54.52576 25.15811 2246 ft 151 kts 353°
2026-05-01 13:46 54.53577 25.16260 2301 ft 158 kts 37°
2026-05-01 13:46 54.54221 25.17821 2298 ft 161 kts 65°
2026-05-01 13:46 54.54355 25.19729 2528 ft 167 kts 94°
2026-05-01 13:46 54.54223 25.21741 2528 ft 167 kts 88°
2026-05-01 13:47 54.54797 25.23214 2138 ft 154 kts 19°
2026-05-01 13:47 54.55820 25.23609 1846 ft 147 kts
2026-05-01 13:47 54.56807 25.24005 1741 ft 147 kts 15°
2026-05-01 13:47 54.57766 25.24633 1557 ft 146 kts 20°
2026-05-01 13:48 54.58697 25.25295 1442 ft 144 kts 21°
2026-05-01 13:48 54.59612 25.25929 1232 ft 142 kts 19°
2026-05-01 13:48 54.60534 25.26552 1038 ft 140 kts 18°
2026-05-01 13:48 54.61444 25.27195 836 ft 140 kts 18°
2026-05-01 13:49 54.62339 25.27830 665 ft 140 kts 21°
2026-05-01 13:49 54.63179 25.28415 613 ft 109 kts 21°
2026-05-01 13:49 54.63600 25.28697 614 ft 24 kts 22°
2026-05-01 13:49 54.63727 25.28759 615 ft 20 kts 357°
2026-05-01 13:50 54.63853 25.28735 613 ft 9 kts 355°
2026-05-01 13:50 54.63924 25.28725 617 ft 11 kts 355°
2026-05-01 13:50 54.64014 25.28713 623 ft 14 kts 355°
2026-05-01 13:50 54.64021 25.28713 620 ft 0 kts 355°
2026-05-01 13:51 54.64028 25.28711 614 ft 7 kts 355°
2026-05-01 13:51 54.64089 25.28700 617 ft 10 kts 349°
2026-05-01 13:51 54.64117 25.28584 615 ft 12 kts 271°
2026-05-01 13:51 54.64118 25.28400 615 ft 17 kts 280°
2026-05-01 13:52 54.64179 25.28285 615 ft 13 kts 259°
2026-05-01 13:52 54.64227 25.28201 625 ft 12 kts 357°
2026-05-01 13:52 54.64245 25.28200 617 ft 0 kts 360°